DECAYED

THOR ABLESTAR DEB, 407 (Decayed)

Orbit data source: Space-Track

THOR ABLESTAR DEB, 407 was space debris in LEO originally from a launch on Thu, 29 Jun 1961 UTC launched from the Air Force Eastern Test Range (AFETR). Debris objects in space refer to the collection of defunct objects orbiting the Earth. Examples of debris include non-operational satellites, rocket bodies, and fragments generated from explosions, collisions, or faulty payload assembly.

Not visible in the next 10 days
Identifier
407, 1961-015EG
Orbit
Decayed
Country
Flag of USUS
Related business
Manufacturer
Unknown
Mission
Decayed spacecraft
Bus & Motor
Unknown
Mass
Unknown
Launch date (UTC)
1961-06-29 (64 years ago)
Launch vehicle
Unknown
Launch site
Air Force Eastern Test Range (AFETR)
Object type
Payload
Rocket body
Debris
Shape & HBR
Unknown shape, 0.1 m
Radar Cross Section
Medium (>0.1 m² and <1 m²)

Expand to show TLE details & history
Last TLE update: 1 month ago

TLE from 1 month ago
0 THOR ABLESTAR DEB
1   407U 61015EG  25267.05596132  .25948985  17165-4  64372-2 0  9995
2   407  66.2620 119.6182 0015825 249.7695 110.1797 16.28400385293238
Epoch: 2025-09-24T01:20Z
TLE epoch observation values (Epoch: 2025-09-24T01:20:35.058Z)
Latitude
-0.00003°
Longitude
96.33518°
Altitude
202.706 km
Speed
7.783 km/s
True Right ascension
07h 58m 28s
True Declination
0° 00' 00"
Sunlit
Object was in daylight at epoch
Visualization orbit readout
Latitude
Unknown
Longitude
Unknown
Altitude
Unknown
Speed
Unknown
Apparent Right ascension
Unknown
Apparent Declination
Unknown
Sunlit
N/A
Visualization observer readout
Local Sidereal Time
19:18:18
Azimuth
Unknown
Elevation
Unknown
Doppler factor
Unknown
Orbital elements
Apogee altitude
205.528 km
Perigee altitude
184.723 km
Semi-major axis
6,573.263 km
Eccentricity
0.00158
Inclination
66.262°
RAAN
119.6182°
Arg. of periapsis
249.7695°
True anomaly
110.34979°
Mean anomaly
110.1797°
Eccentric anomaly
110.26476°
Mean motion
4.0726 °/min
Orbital period
88.4 mins
BSTAR
0.0064372

Documentation

Showing up to 5 results
|